Madison, SD

4:38 AM CDT on October 17, 2017 (GMT -0500)
Madison Municipal

Weather History for KMDS - July, 2013

Change the Weather History Date:

Tuesday, July 16, 2013

  Actual Average Record
Temperature  
Mean Temperature 74 °F -  
Max Temperature 82 °F 85 °F 96 °F (2012)
Min Temperature 66 °F 61 °F 44 °F (2014)
Cooling Degree Days 9    
Growing Degree Days 24 (Base 50)    
Moisture  
Dew Point 67 °F    
Average Humidity 79    
Maximum Humidity 100    
Minimum Humidity 51    
Precipitation  
Precipitation 0.00 in - - ()
Sea Level Pressure  
Sea Level Pressure 30.21 in    
Wind  
Wind Speed 10 mph (South)    
Max Wind Speed 22 mph    
Max Gust Speed 29 mph    
Visibility 10 miles    
Events      
Averages and records for this station are not official NWS values.
T = Trace of Precipitation, MM = Missing Value Source: NWS Daily Summary

Daily Weather History Graph

Daily Weather History Graph

Search for Another Location

Airport or City:

Trip Planner

Search our weather history database for the weather conditions in past years. The results will help you decide how hot, cold, wet, or windy it might be!

Date:

Astronomy

Jul. 16, 2013 Rise Set
Actual Time 6:00 AM CDT 9:07 PM CDT
Civil Twilight 5:25 AM CDT 9:42 PM CDT
Nautical Twilight 4:40 AM CDT 10:27 PM CDT
Astronomical Twilight 3:46 AM CDT 11:20 PM CDT
Moon 2:45 PM CDT (7/16) 12:37 AM CDT (7/16)
Length of Visible Light 16h 16m
Length of Day
15h 07m
First Quarter, 56% of the Moon is Illuminated
Jul 16
First Quarter
Jul 22
Full
Jul 29
Last Quarter
Aug 6
New
Aug 14
First Quarter

Hourly Weather History & Observations

Time (CDT) Temp. Heat Index Dew Point Humidity Pressure Visibility Wind Dir Wind Speed Gust Speed Precip Events Conditions
12:10 AM 71.6 °F - 71.6 °F 100% 30.17 in 10.0 mi SSE 6.9 mph - N/A   Clear
12:30 AM 68.0 °F - 68.0 °F 100% 30.17 in 10.0 mi South 4.6 mph - N/A   Clear
12:50 AM 68.0 °F - 68.0 °F 100% 30.17 in 10.0 mi South 5.8 mph - N/A   Clear
1:10 AM 68.0 °F - 68.0 °F 100% 30.17 in 10.0 mi South 5.8 mph - N/A   Clear
1:30 AM 68.0 °F - 68.0 °F 100% 30.17 in 10.0 mi SSE 8.1 mph - N/A   Clear
1:50 AM 68.0 °F - 68.0 °F 100% 30.17 in 10.0 mi South 8.1 mph - N/A   Clear
2:10 AM 68.0 °F - 68.0 °F 100% 30.17 in 10.0 mi South 6.9 mph - N/A   Clear
2:30 AM 68.0 °F - 68.0 °F 100% 30.17 in 10.0 mi SSE 8.1 mph - N/A   Clear
2:50 AM 68.0 °F - 68.0 °F 100% 30.17 in 10.0 mi SSE 8.1 mph - N/A   Clear
3:10 AM 68.0 °F - 68.0 °F 100% 30.17 in 10.0 mi South 9.2 mph - N/A   Clear
3:30 AM 68.0 °F - 68.0 °F 100% 30.16 in 10.0 mi South 10.4 mph - N/A   Clear
3:50 AM 68.0 °F - 68.0 °F 100% 30.16 in 10.0 mi South 10.4 mph - N/A   Clear
4:10 AM 68.0 °F - 68.0 °F 100% 30.17 in 10.0 mi South 8.1 mph - N/A   Clear
4:30 AM 68.0 °F - 68.0 °F 100% 30.16 in 10.0 mi South 6.9 mph - N/A   Clear
4:50 AM 68.0 °F - 68.0 °F 100% 30.17 in 10.0 mi South 6.9 mph - N/A   Clear
5:10 AM 68.0 °F - 68.0 °F 100% 30.17 in 10.0 mi South 5.8 mph - N/A   Clear
5:30 AM 68.0 °F - 68.0 °F 100% 30.17 in 10.0 mi SSE 3.5 mph - N/A   Clear
5:50 AM 66.2 °F - 66.2 °F 100% 30.18 in 10.0 mi SSE 4.6 mph - N/A   Clear
6:10 AM 66.2 °F - 66.2 °F 100% 30.19 in 10.0 mi South 4.6 mph - N/A   Clear
6:30 AM 68.0 °F - 68.0 °F 100% 30.19 in 10.0 mi South 5.8 mph - N/A   Clear
6:50 AM 68.0 °F - 68.0 °F 100% 30.20 in 10.0 mi South 6.9 mph - N/A   Clear
7:10 AM 68.0 °F - 68.0 °F 100% 30.20 in 10.0 mi South 6.9 mph - N/A   Clear
7:30 AM 69.8 °F - 69.8 °F 100% 30.21 in 10.0 mi SSW 6.9 mph - N/A   Clear
7:50 AM 71.6 °F - 71.6 °F 100% 30.21 in 10.0 mi SSW 8.1 mph - N/A   Clear
8:10 AM 73.4 °F - 71.6 °F 94% 30.21 in 10.0 mi SSW 10.4 mph - N/A   Clear
8:30 AM 73.4 °F - 68.0 °F 83% 30.21 in 10.0 mi SSW 16.1 mph - N/A   Clear
8:50 AM 75.2 °F - 66.2 °F 73% 30.22 in 10.0 mi SSW 13.8 mph 19.6 mph N/A   Clear
9:10 AM 75.2 °F - 68.0 °F 78% 30.22 in 10.0 mi SSW 12.7 mph 18.4 mph N/A   Clear
9:30 AM 75.2 °F - 66.2 °F 73% 30.22 in 10.0 mi SSW 13.8 mph 18.4 mph N/A   Clear
9:50 AM 77.0 °F - 64.4 °F 65% 30.22 in 10.0 mi SSW 15.0 mph 20.7 mph N/A   Clear
10:10 AM 77.0 °F - 64.4 °F 65% 30.23 in 10.0 mi SSW 12.7 mph 19.6 mph N/A   Clear
10:30 AM 78.8 °F - 66.2 °F 65% 30.23 in 10.0 mi SSW 12.7 mph 18.4 mph N/A   Clear
10:50 AM 78.8 °F - 64.4 °F 61% 30.23 in 10.0 mi SSW 15.0 mph 23.0 mph N/A   Clear
11:10 AM 80.6 °F 82.3 °F 64.4 °F 58% 30.23 in 10.0 mi SSW 15.0 mph - N/A   Clear
11:30 AM 80.6 °F 82.7 °F 66.2 °F 61% 30.24 in 10.0 mi SSW 13.8 mph 19.6 mph N/A   Clear
11:50 AM 80.6 °F 82.3 °F 64.4 °F 58% 30.24 in 10.0 mi SSW 16.1 mph 23.0 mph N/A   Clear
12:10 PM 80.6 °F 82.7 °F 66.2 °F 61% 30.23 in 10.0 mi South 17.3 mph 20.7 mph N/A   Clear
12:30 PM 80.6 °F 82.3 °F 64.4 °F 58% 30.23 in 10.0 mi SSW 16.1 mph 21.9 mph N/A   Clear
12:50 PM 82.4 °F 83.9 °F 64.4 °F 54% 30.23 in 10.0 mi South 17.3 mph 24.2 mph N/A   Clear
1:10 PM 82.4 °F 84.6 °F 66.2 °F 58% 30.23 in 10.0 mi South 16.1 mph 21.9 mph N/A   Clear
1:30 PM 82.4 °F 83.9 °F 64.4 °F 54% 30.23 in 10.0 mi South 18.4 mph 23.0 mph N/A   Clear
1:50 PM 82.4 °F 83.9 °F 64.4 °F 54% 30.23 in 10.0 mi SSW 18.4 mph 23.0 mph N/A   Clear
2:10 PM 82.4 °F 83.4 °F 62.6 °F 51% 30.22 in 10.0 mi South 16.1 mph 24.2 mph N/A   Clear
2:30 PM 82.4 °F 83.9 °F 64.4 °F 54% 30.22 in 10.0 mi South 16.1 mph 21.9 mph N/A   Clear
2:50 PM 82.4 °F 83.4 °F 62.6 °F 51% 30.22 in 10.0 mi SSW 16.1 mph 23.0 mph N/A   Clear
3:10 PM 82.4 °F 83.9 °F 64.4 °F 54% 30.22 in 10.0 mi South 20.7 mph - N/A   Clear
3:30 PM 82.4 °F 83.9 °F 64.4 °F 54% 30.22 in 10.0 mi SSW 17.3 mph 24.2 mph N/A   Clear
3:50 PM 82.4 °F 83.9 °F 64.4 °F 54% 30.21 in 10.0 mi South 19.6 mph - N/A   Clear
4:10 PM 82.4 °F 83.9 °F 64.4 °F 54% 30.21 in 10.0 mi SSW 16.1 mph 28.8 mph N/A   Clear
4:30 PM 82.4 °F 83.9 °F 64.4 °F 54% 30.21 in 10.0 mi SSW 20.7 mph 26.5 mph N/A   Clear
4:50 PM 82.4 °F 83.9 °F 64.4 °F 54% 30.21 in 10.0 mi SSW 21.9 mph 27.6 mph N/A   Clear
5:10 PM 82.4 °F 83.9 °F 64.4 °F 54% 30.21 in 10.0 mi SSW 18.4 mph 26.5 mph N/A   Clear
5:30 PM 82.4 °F 84.6 °F 66.2 °F 58% 30.21 in 10.0 mi SSW 17.3 mph 23.0 mph N/A   Clear
5:50 PM 82.4 °F 84.6 °F 66.2 °F 58% 30.21 in 10.0 mi SSW 16.1 mph 24.2 mph N/A   Clear
6:10 PM 82.4 °F 83.9 °F 64.4 °F 54% 30.20 in 10.0 mi SSW 20.7 mph 25.3 mph N/A   Clear
6:30 PM 82.4 °F 84.6 °F 66.2 °F 58% 30.21 in 10.0 mi South 15.0 mph 20.7 mph N/A   Clear
6:50 PM 82.4 °F 84.6 °F 66.2 °F 58% 30.21 in 10.0 mi SSW 10.4 mph - N/A   Clear
7:10 PM 80.6 °F 82.7 °F 66.2 °F 61% 30.21 in 10.0 mi South 12.7 mph 17.3 mph N/A   Clear
7:30 PM 80.6 °F 82.7 °F 66.2 °F 61% 30.21 in 10.0 mi SSW 10.4 mph - N/A   Clear
7:50 PM 78.8 °F - 68.0 °F 69% 30.21 in 10.0 mi South 9.2 mph - N/A   Clear
8:10 PM 77.0 °F - 68.0 °F 74% 30.21 in 10.0 mi South 8.1 mph - N/A   Clear
8:30 PM 75.2 °F - 68.0 °F 78% 30.21 in 10.0 mi South 8.1 mph - N/A   Clear
8:50 PM 73.4 °F - 71.6 °F 94% 30.21 in 10.0 mi South 6.9 mph - N/A   Clear
9:10 PM 71.6 °F - 71.6 °F 100% 30.22 in 10.0 mi South 6.9 mph - N/A   Clear
9:30 PM 71.6 °F - 71.6 °F 100% 30.23 in 10.0 mi South 8.1 mph - N/A   Clear
9:50 PM 71.6 °F - 71.6 °F 100% 30.23 in 10.0 mi South 9.2 mph - N/A   Clear
10:10 PM 71.6 °F - 69.8 °F 94% 30.24 in 10.0 mi South 6.9 mph - N/A   Clear
10:30 PM 71.6 °F - 71.6 °F 100% 30.24 in 10.0 mi South 6.9 mph - N/A   Clear
10:50 PM 71.6 °F - 71.6 °F 100% 30.24 in 10.0 mi South 6.9 mph - N/A   Clear
11:10 PM 69.8 °F - 69.8 °F 100% 30.24 in 10.0 mi South 6.9 mph - N/A   Clear
11:30 PM 69.8 °F - 69.8 °F 100% 30.25 in 10.0 mi South 6.9 mph - N/A   Clear
11:50 PM 69.8 °F - 69.8 °F 100% 30.25 in 10.0 mi South 8.1 mph - N/A   Clear